Find Starlink 33914

NORAD ID: 63774 Int'l Des: 2025-089 Owner: SPXS Country: US Constellation: starlink operational
LEOCIRCULAR

リアルタイム位置

3D地球を読み込み中...

Starlink 33914について

説明を読み込み中...

次回通過

Passes for default location (London). Set your location on the main map for personalized predictions.

高度履歴

Loading altitude history...

軌道要素

1 63774U 25089Y 26104.72458896 .00012129 00000-0 44943-3 0 9995
2 63774 43.0038 197.7946 0001363 270.6064 89.4632 15.27589733 54515
Epoch: Apr 14, 2026 • Age: 16 hours

現在のステータス

高度 487.0 km
速度 7.63 km/s
衛星直下点 43.08°N, 65.84°W
打ち上げ日 Apr 29, 2025
運用期間 0.9 years
タイプ internet

技術仕様

分類 Payload
質量 575.00 kg
乾燥質量 530.00 kg
総質量 575.00 kg
長さ 0.30 m
直径 4.10 m
スパン 29.00 m
形状 Box + pan
製造者 SPXS
バスタイプ Starlink V2MO
フェーズステータス In Orbit
所有者/国 SPXS/US

Most Searched